Overview Statistics Trail Chart Weather Telemetry Raw packets
 

This is the latest recevied weather packets stored in our database for station/object NO9B. If no packets are shown the sender has not sent any weather packets the latest 10 day(s).

<< 44 45 46 47 48 49 50 >>
Time Temp. Humidity Pressure Rain* Wind** Luminosity Snow
1788362359 27.22° C 75% 1015.5 hPa 0 mm - 96 W/m² -
1788362055 26.67° C 76% 1015.5 hPa 0 mm - 97 W/m² -
1788361754 26.67° C 75% 1015.5 hPa 0 mm - 99 W/m² -
1788361451 26.67° C 75% 1015.4 hPa 0 mm - 78 W/m² -
1788361150 26.67° C 75% 1015.5 hPa 0 mm - 75 W/m² -
1788360846 26.67° C 76% 1015.4 hPa 0 mm - 47 W/m² -
1788360541 26.11° C 76% 1015.6 hPa 0 mm - 47 W/m² -
1788360237 26.11° C 76% 1015.6 hPa 0 mm - 52 W/m² -
1788359936 26.11° C 76% 1015.6 hPa 0 mm - 64 W/m² -
1788359631 25.56° C 77% 1015.7 hPa 0 mm - 65 W/m² -
1788359327 26.11° C 78% 1015.5 hPa 0 mm - 51 W/m² -
1788359023 25.56° C 79% 1015.6 hPa 0 mm - 53 W/m² -
1788358718 25.56° C 80% 1015.6 hPa 0 mm - 68 W/m² -
1788358414 25.56° C 79% 1015.7 hPa 0 mm - 79 W/m² -
1788358113 25.56° C 79% 1016 hPa 0 mm - 80 W/m² -
1788357808 25.56° C 80% 1015.9 hPa 0 mm - 84 W/m² -
1788357529 25.56° C 79% 1016 hPa 0 mm - 76 W/m² -
1788357204 25.56° C 78% 1016 hPa 0 mm - 37 W/m² -
1788356902 25.56° C 79% 1015.8 hPa 0 mm - 74 W/m² -
1788356598 25.56° C 78% 1015.7 hPa 0 mm - 56 W/m² -
1788356294 25.56° C 78% 1015.9 hPa 0 mm - 65 W/m² -
1788355993 25.56° C 80% 1016 hPa 0 mm - 99 W/m² -
1788355688 25.56° C 84% 1015.9 hPa 0 mm - 80 W/m² -
1788355384 25° C 84% 1015.9 hPa 0 mm - 75 W/m² -
1788355079 25° C 85% 1016.1 hPa 0 mm - 42 W/m² -

* Rain latest hour (hover to see other rain measurements)
** Current wind speed in m/s (hover to see current wind gust speed)